OBJECT B, 63292

Orbit data source: Space-Track

You're viewing an Uncataloged Satellite

Recently launched and/or uncataloged satellites may have evolving metadata. Metadata may include but not limited to: Owner, Maufacturer, Bus, Motor, and Mission.

OBJECT B, 63292 is a Chinese satellite in SSO that was launched on Mon, 17 Mar 2025 UTC via a GUSHENXING 1 launch vehicle from the Jiuquan Satellite Launch Center, China (JSC). Unknown objects in Earth's orbit typically refer to objects detected orbiting the Earth but have not yet been identified or cataloged. These objects could be anything from previously untracked satellites, spent rocket stages, debris from satellite collisions, or even natural meteoroids temporarily captured by Earth's gravity.

Loading next visibility...
Identifier
63292, 2025-055B
Orbit
SSO
Country
Flag of CNCN / PRC
Related business
None
Manufacturer
Unknown
Mission
Operational Commercial Meteo Radio Occ.
Bus & Motor
Unknown
Mass
Unknown
Launch date (UTC)
2025-03-17 (1 year ago)
Launch vehicle
GUSHENXING 1
Launch site
Jiuquan Satellite Launch Center, China (JSC)
Object type
Unknown
Shape & HBR
Box + 1 Pan, 0.7 m
Radar Cross Section
5.339 m², Medium (>0.1 m² and < 1m²)

Expand to show TLE details & history
Last TLE update: 10 hours ago

TLE from 10 hours ago
0 OBJECT B
1 63292U 25055B   26171.50937719  .00005747  00000-0  33563-3 0  9993
2 63292  97.6515 312.3549 0037580 140.1367 220.2634 15.11715099 69585
Epoch: 2026-06-20T12:13Z
TLE epoch observation values (Epoch: 2026-06-20T12:13:30.189Z)
Latitude
-0.00002°
Longitude
-139.74386°
Altitude
553.899 km
Speed
7.574 km/s
True Right ascension
20h 49m 25s
True Declination
0° 00' 00"
Sunlit
Object was in full shadow at epoch
Visualization orbit readout
Latitude
Unknown
Longitude
Unknown
Altitude
Unknown
Speed
Unknown
Apparent Right ascension
Unknown
Apparent Declination
Unknown
Sunlit
N/A
Visualization observer readout
Local Sidereal Time
08:42:09
Azimuth
Unknown
Elevation
Unknown
Doppler factor
Unknown
Orbital elements
Apogee altitude
553.91 km
Perigee altitude
502.004 km
Semi-major axis
6,906.094 km
Eccentricity
0.00376
Inclination
97.6515°
RAAN
312.3549°
Arg. of periapsis
140.1367°
True anomaly
219.98607°
Mean anomaly
220.2634°
Eccentric anomaly
220.12464°
Mean motion
3.78176 °/min
Orbital period
95.19 mins
BSTAR
0.00033563
Loading maneuver chart data...
Computing Atmospheric mass density...
Loading historical data...
Loading historical data...
Loading historical data...
Loading historical data...
Loading historical data...
Loading historical data...
Loading historical data...

Documentation

Showing up to 5 results
|